Main page
METAR-TAF:

METAR-TAF

Airports :

Persian Gulf Airport

Asaluyeh, Iran

latitude: 27-22-46N, longitude: 52-44-15E, elevation: 8 m

Current weather observation

The report was made 3 hours and 38 minutes ago, at 18:00 UTC
Wind 4 kt from the Northwest
Temperature 28°C
Humidity 48%
Pressure 1012 hPa
Visibility 10 km or more
Few clouds at a height of 3500 ft, Cumulonimbus.
thunderstorm in vicinity

METAR: OIBP 171800Z 31004KT 9999 VCTS FEW035CB 28/16 Q1011 A2988

Time: 01:08 (21:38 UTC)


TAF: missing

Weather observations and forecasts of more than 4000 airports (METAR and TAF reports).

The available stations are represented by yellow and red dots on the map.

Hover mouse over dot to see the name of the station.

Then click to see weather observations and forecasts.

To change the map : click on the green buttons with a black cross to zoom in, on the green button with a dash to zoom out, or on the green arrows for adjacent maps.


METAR-TAF: